| time (UTC) | temp F | wind direction | speed knots | gust knots | rain 1hr in | rain 24hr in | rain mn in | humidity % | barometer mb |
| 20260901081558 | 85 | 310 | 6.1 | 0.0 | 0.00 | 0.00 | 0.00 | 26 | 1007.6 |
| 20260901074555 | 85 | 304 | 6.1 | 0.0 | 0.00 | 0.00 | 0.00 | 30 | 1007.6 |
| 20260901073052 | 84 | 275 | 2.6 | 0.0 | 0.00 | 0.00 | 0.00 | 29 | 1007.6 |
| 20260901071550 | 84 | 188 | 1.7 | 0.0 | 0.00 | 0.00 | 0.00 | 29 | 1007.5 |
| 20260901070050 | 84 | 242 | 1.7 | 0.0 | 0.00 | 0.00 | 0.00 | 28 | 1007.4 |
| 20260901064550 | 83 | 65 | 0.9 | 0.0 | 0.00 | 0.00 | 0.00 | 29 | 1007.4 |
| 20260901063054 | 84 | 65 | 0.9 | 0.0 | 0.00 | 0.00 | 0.00 | 29 | 1007.4 |
| 20260901061545 | 84 | 65 | 1.7 | 0.0 | 0.00 | 0.00 | 0.00 | 29 | 1007.4 |
| 20260901060045 | 85 | 65 | 0.0 | 0.0 | 0.00 | 0.00 | 0.00 | 28 | 1007.3 |
| 20260901054545 | 85 | 65 | 0.0 | 0.0 | 0.00 | 0.00 | 0.00 | 28 | 1007.4 |
| 20260901053052 | 85 | 65 | 0.9 | 0.0 | 0.00 | 0.00 | 0.00 | 27 | 1007.5 |
| 20260901051546 | 85 | 146 | 1.7 | 0.0 | 0.00 | 0.00 | 0.00 | 27 | 1007.4 |
| 20260901050044 | 86 | 141 | 2.6 | 0.0 | 0.00 | 0.00 | 0.00 | 26 | 1007.3 |
| 20260901044543 | 86 | 265 | 5.2 | 0.0 | 0.00 | 0.00 | 0.00 | 24 | 1007.2 |
| 20260901043043 | 86 | 294 | 6.1 | 0.0 | 0.00 | 0.00 | 0.00 | 24 | 1007.1 |
| 20260901041542 | 86 | 316 | 3.5 | 0.0 | 0.00 | 0.00 | 0.00 | 27 | 1007.0 |
| 20260901040042 | 87 | 340 | 3.5 | 0.0 | 0.00 | 0.00 | 0.00 | 27 | 1007.0 |
| 20260901034542 | 88 | 228 | 3.5 | 0.0 | 0.00 | 0.00 | 0.00 | 29 | 1006.9 |
| 20260901033044 | 88 | 245 | 2.6 | 0.0 | 0.00 | 0.00 | 0.00 | 30 | 1006.7 |
| 20260901031540 | 88 | 240 | 0.9 | 0.0 | 0.00 | 0.00 | 0.00 | 29 | 1006.5 |
| 20260901030039 | 89 | 295 | 2.6 | 0.0 | 0.00 | 0.00 | 0.00 | 29 | 1006.3 |
| 20260901024539 | 89 | 283 | 7.0 | 0.0 | 0.00 | 0.00 | 0.00 | 29 | 1006.1 |
| 20260901023038 | 89 | 283 | 9.6 | 0.0 | 0.00 | 0.00 | 0.00 | 29 | 1005.9 |
| 20260901021538 | 90 | 285 | 11.3 | 0.0 | 0.00 | 0.00 | 0.00 | 29 | 1005.8 |
| 20260901020037 | 91 | 235 | 8.7 | 0.0 | 0.00 | 0.00 | 0.00 | 28 | 1005.6 |
| 20260901014536 | 93 | 219 | 3.5 | 0.0 | 0.00 | 0.00 | 0.00 | 26 | 1005.4 |
| 20260901013036 | 95 | 242 | 3.5 | 0.0 | 0.00 | 0.00 | 0.00 | 24 | 1005.2 |
| 20260901011621 | 96 | 260 | 5.2 | 0.0 | 0.00 | 0.00 | 0.00 | 20 | 1005.0 |
| 20260901010020 | 96 | 276 | 7.8 | 0.0 | 0.00 | 0.00 | 0.00 | 22 | 1004.7 |
| 20260901004516 | 97 | 277 | 9.6 | 0.0 | 0.00 | 0.00 | 0.00 | 22 | 1004.6 |
| 20260901003009 | 97 | 251 | 8.7 | 0.0 | 0.00 | 0.00 | 0.00 | 22 | 1004.5 |
| 20260901001513 | 97 | 251 | 8.7 | 0.0 | 0.00 | 0.00 | 0.00 | 21 | 1004.6 |
| 20260901000007 | 98 | 243 | 9.6 | 0.0 | 0.00 | 0.00 | 0.00 | 20 | 1004.6 |
| 20260831234508 | 98 | 225 | 9.6 | 0.0 | 0.00 | 0.00 | 0.00 | 20 | 1004.6 |
| 20260831233006 | 99 | 222 | 8.7 | 0.0 | 0.00 | 0.00 | 0.00 | 21 | 1004.6 |
| 20260831231505 | 100 | 244 | 12.2 | 0.0 | 0.00 | 0.00 | 0.00 | 20 | 1004.5 |
| 20260831230005 | 99 | 300 | 14.8 | 0.0 | 0.00 | 0.00 | 0.00 | 20 | 1004.5 |
| 20260831224505 | 100 | 300 | 11.3 | 0.0 | 0.00 | 0.00 | 0.00 | 20 | 1004.6 |
| 20260831223003 | 100 | 267 | 11.3 | 0.0 | 0.00 | 0.00 | 0.00 | 19 | 1004.6 |
| 20260831221501 | 101 | 313 | 7.8 | 0.0 | 0.00 | 0.00 | 0.00 | 17 | 1004.7 |
| 20260831220059 | 101 | 197 | 2.6 | 0.0 | 0.00 | 0.00 | 0.00 | 16 | 1005.0 |
| 20260831214606 | 101 | 294 | 3.5 | 0.0 | 0.00 | 0.00 | 0.00 | 16 | 1005.1 |
| 20260831213102 | 99 | 64 | 5.2 | 0.0 | 0.00 | 0.00 | 0.00 | 16 | 1005.5 |
| 20260831211554 | 99 | 188 | 1.7 | 0.0 | 0.00 | 0.00 | 0.00 | 16 | 1005.7 |
| 20260831210053 | 99 | 355 | 2.6 | 0.0 | 0.00 | 0.00 | 0.00 | 16 | 1005.9 |
| 20260831204556 | 100 | 343 | 3.5 | 0.0 | 0.00 | 0.00 | 0.00 | 15 | 1006.1 |
| 20260831203059 | 99 | 5 | 2.6 | 0.0 | 0.00 | 0.00 | 0.00 | 16 | 1006.4 |
| 20260831201558 | 98 | 83 | 3.5 | 0.0 | 0.00 | 0.00 | 0.00 | 16 | 1006.6 |
| 20260831200046 | 98 | 81 | 2.6 | 0.0 | 0.00 | 0.00 | 0.00 | 16 | 1006.7 |
| 20260831194547 | 98 | 43 | 4.3 | 0.0 | 0.00 | 0.00 | 0.00 | 16 | 1006.9 |
| 20260831193113 | 97 | 263 | 1.7 | 0.0 | 0.00 | 0.00 | 0.00 | 16 | 1007.2 |
| 20260831191542 | 96 | 50 | 3.5 | 0.0 | 0.00 | 0.00 | 0.00 | 16 | 1007.5 |
| 20260831190044 | 96 | 335 | 2.6 | 0.0 | 0.00 | 0.00 | 0.00 | 16 | 1007.5 |
| 20260831184538 | 96 | 54 | 5.2 | 0.0 | 0.00 | 0.00 | 0.00 | 16 | 1007.7 |
| 20260831183038 | 95 | 31 | 5.2 | 0.0 | 0.00 | 0.00 | 0.00 | 16 | 1007.8 |
| 20260831181547 | 95 | 77 | 3.5 | 0.0 | 0.00 | 0.00 | 0.00 | 18 | 1007.8 |
| 20260831180038 | 94 | 108 | 4.3 | 0.0 | 0.00 | 0.00 | 0.00 | 18 | 1007.8 |
| 20260831174535 | 94 | 117 | 3.5 | 0.0 | 0.00 | 0.00 | 0.00 | 17 | 1007.9 |
| 20260831173033 | 94 | 84 | 4.3 | 0.0 | 0.00 | 0.00 | 0.00 | 17 | 1008.0 |
| 20260831171530 | 94 | 113 | 2.6 | 0.0 | 0.00 | 0.00 | 0.00 | 15 | 1007.9 |
| 20260831170033 | 92 | 16 | 3.5 | 0.0 | 0.00 | 0.00 | 0.00 | 15 | 1007.8 |
| 20260831164525 | 92 | 171 | 2.6 | 0.0 | 0.00 | 0.00 | 0.00 | 16 | 1007.8 |
| 20260831163026 | 91 | 127 | 2.6 | 0.0 | 0.00 | 0.00 | 0.00 | 15 | 1007.8 |
| 20260831161534 | 91 | 106 | 1.7 | 0.0 | 0.00 | 0.00 | 0.00 | 15 | 1007.8 |
| 20260831160020 | 90 | 83 | 2.6 | 0.0 | 0.00 | 0.00 | 0.00 | 15 | 1007.8 |
| 20260831154519 | 90 | 57 | 1.7 | 0.0 | 0.00 | 0.00 | 0.00 | 14 | 1007.7 |
| 20260831153018 | 89 | 81 | 0.9 | 0.0 | 0.00 | 0.00 | 0.00 | 15 | 1007.8 |
| 20260831151516 | 87 | 95 | 2.6 | 0.0 | 0.00 | 0.00 | 0.00 | 17 | 1007.8 |
| 20260831150015 | 87 | 107 | 1.7 | 0.0 | 0.00 | 0.00 | 0.00 | 17 | 1007.7 |
| 20260831144515 | 85 | 129 | 1.7 | 0.0 | 0.00 | 0.00 | 0.00 | 19 | 1007.7 |
| 20260831143015 | 84 | 59 | 1.7 | 0.0 | 0.00 | 0.00 | 0.00 | 20 | 1007.4 |
| 20260831141510 | 83 | 79 | 1.7 | 0.0 | 0.00 | 0.00 | 0.00 | 20 | 1007.2 |
| 20260831140008 | 82 | 85 | 1.7 | 0.0 | 0.00 | 0.00 | 0.00 | 21 | 1006.9 |
| 20260831134506 | 81 | 308 | 1.7 | 0.0 | 0.00 | 0.00 | 0.00 | 21 | 1006.6 |
| 20260831133004 | 81 | 80 | 1.7 | 0.0 | 0.00 | 0.00 | 0.00 | 21 | 1006.4 |
| 20260831131502 | 80 | 94 | 3.5 | 0.0 | 0.00 | 0.00 | 0.00 | 22 | 1006.3 |
| 20260831124600 | 80 | 300 | 0.9 | 0.0 | 0.00 | 0.00 | 0.00 | 22 | 1006.0 |
| 20260831123057 | 79 | 300 | 0.9 | 0.0 | 0.00 | 0.00 | 0.00 | 22 | 1006.0 |
| 20260831121555 | 80 | 300 | 1.7 | 0.0 | 0.00 | 0.00 | 0.00 | 22 | 1005.9 |
| 20260831120054 | 80 | 327 | 1.7 | 0.0 | 0.00 | 0.00 | 0.00 | 21 | 1005.7 |
| 20260831114551 | 81 | 32 | 0.9 | 0.0 | 0.00 | 0.00 | 0.00 | 21 | 1005.8 |
| 20260831113050 | 82 | 32 | 1.7 | 0.0 | 0.00 | 0.00 | 0.00 | 20 | 1005.8 |
| 20260831111546 | 83 | 175 | 1.7 | 0.0 | 0.00 | 0.00 | 0.00 | 19 | 1005.8 |
| 20260831110151 | 83 | 139 | 1.7 | 0.0 | 0.00 | 0.00 | 0.00 | 19 | 1005.7 |
| 20260831104523 | 83 | 102 | 4.3 | 0.0 | 0.00 | 0.00 | 0.00 | 19 | 1005.5 |
| 20260831103015 | 85 | 167 | 1.7 | 0.0 | 0.00 | 0.00 | 0.00 | 18 | 1005.4 |
| 20260831101506 | 86 | 113 | 2.6 | 0.0 | 0.00 | 0.00 | 0.00 | 17 | 1005.3 |
| 20260831100005 | 87 | 267 | 4.3 | 0.0 | 0.00 | 0.00 | 0.00 | 16 | 1005.1 |
| 20260831094556 | 87 | 202 | 3.5 | 0.0 | 0.00 | 0.00 | 0.00 | 17 | 1005.2 |
| 20260831093059 | 87 | 157 | 3.5 | 0.0 | 0.00 | 0.00 | 0.00 | 16 | 1005.4 |
| 20260831091534 | 88 | 260 | 7.0 | 0.0 | 0.00 | 0.00 | 0.00 | 15 | 1005.2 |
| 20260831090033 | 88 | 269 | 4.3 | 0.0 | 0.00 | 0.00 | 0.00 | 16 | 1005.3 |
| 20260831084642 | 87 | 302 | 1.7 | 0.0 | 0.00 | 0.00 | 0.00 | 17 | 1005.6 |
| 20260831083027 | 88 | 279 | 3.5 | 0.0 | 0.00 | 0.00 | 0.00 | 16 | 1005.7 |